Location: Chena
(64.8152°N, 147.9227°W)
Time: 13:50:36
(UTC+00:00)

N. Korean satellite - Pass Details

Date: 30 January 2021
Orbit: 451 x 503 km, 97.2° (Epoch: 28 February)

Event Time Altitude Azimuth Distance (km) Brightness Sun altitude
Rises 14:58:29 0° 20° (NNE) 2,520 10.6 -22.8°
Reaches altitude 10° 15:00:44 10° 31° (NNE) 1,630 9.7 -22.6°
Maximum altitude 15:03:52 31° 95° (E) 840 8.4 -22.3°
Drops below altitude 10° 15:06:58 10° 160° (SSE) 1,600 9.3 -21.9°
Sets 15:09:09 0° 171° (S) 2,465 10.2 -21.7°
